Wetbulb
49.67 49.95 49.32 48.30 47.97 47.61 47.63 47.40 47.34 47.31 47.36 47.34 47.32 47.14 46.87 46.61 46.22 42.90 39.36 41.35 39.80 32.70 32.81 36.61 36.24 33.35 33.32 33.20 27.33 30.51 29.01 27.97 22.89 14.30 17.14 15.37 16.80 20.98 20.75 22.63 21.56 20.41 17.60 16.13 19.27 16.50 10.73 31.59 29.78 19.78 25.04 27.16 28.53 27.57
49.44 47.81 46.98 46.86 46.75 46.50 46.16 45.90 45.76 45.64 45.66 45.88 46.36 46.34 46.02 45.57 45.15 42.42 36.54 39.20 40.46 34.18 32.95 36.88 36.58 36.64 35.45 34.88 31.02 29.01 27.64 26.38 25.42 19.35 15.79 19.14 19.74 21.27 21.25 13.03 24.84 18.13 22.10 20.18 20.61 17.97 26.92 30.17 27.35 29.93 28.85 24.39 27.52 29.73
46.68 46.39 46.27 45.96 45.59 45.27 45.05 44.70 44.53 44.51 44.48 44.67 44.75 44.82 44.98 45.26 44.59 40.67 35.69 37.00 35.58 31.47 30.73 31.13 30.47 35.14 37.29 35.14 35.13 26.97 27.37 30.51 27.61 27.35 21.87 20.90 19.47 21.26 15.55 17.81 20.94 24.31 27.00 20.05 20.42 25.18 25.83 28.11 29.99 32.01 32.61 31.65 32.93 32.63
45.60 45.07 44.78 44.22 43.98 43.91 43.71 43.60 43.58 44.09 44.71 44.81 44.90 45.32 45.34 45.17 44.68 42.54 36.21 36.87 35.53 32.12 25.08 26.81 36.42 33.54 37.20 35.96 34.78 33.27 31.65 31.21 29.72 26.79 22.46 19.87 20.30 24.70 19.61 21.80 20.82 23.48 24.58 23.10 17.89 24.15 27.06 30.47 31.97 33.38 34.21 34.73 34.59 35.45
43.98 43.67 43.25 42.99 42.98 43.04 43.11 43.43 43.83 44.04 44.55 44.81 44.97 44.96 44.44 44.04 43.28 39.88 37.45 36.62 37.58 31.80 23.99 24.84 32.63 35.51 36.25 34.91 33.24 32.76 30.92 27.26 24.17 22.30 18.69 18.99 23.98 23.70 23.49 23.42 21.77 24.94 22.90 17.49 16.69 26.51 25.96 28.72 33.74 35.75 32.57 34.81 35.28 34.57
42.89 42.49 42.22 42.07 42.24 42.57 43.11 43.24 43.41 43.56 43.84 43.99 44.24 44.56 44.84 44.69 41.31 35.02 27.53 34.87 38.58 36.09 26.93 22.33 31.06 31.84 33.66 34.10 32.41 30.37 29.74 26.90 25.06 22.68 21.12 23.89 27.37 24.54 17.72 19.81 25.93 28.34 30.24 30.16 26.48 32.66 32.13 33.23 35.80 36.78 34.62 33.59 33.82 34.45
42.27 42.41 42.54 42.46 42.60 42.70 42.83 42.78 43.29 43.46 43.65 43.60 43.72 43.77 42.92 41.77 36.40 31.87 27.98 33.03 40.21 36.02 26.81 21.93 22.40 29.48 34.17 32.48 29.52 28.82 29.71 26.86 26.06 22.90 21.31 23.70 24.26 23.68 17.05 19.75 26.80 28.80 30.43 30.93 33.66 32.84 30.86 32.07 32.49 35.70 32.45 33.00 35.12 34.88
42.87 42.86 42.81 42.67 42.67 42.28 42.21 42.60 42.84 42.97 43.18 43.38 43.37 43.38 42.97 42.30 37.99 31.26 33.60 40.84 38.94 32.13 30.81 22.39 22.48 25.83 32.23 25.98 23.56 29.08 23.71 25.45 24.00 24.25 24.66 23.51 24.36 23.47 19.02 25.74 28.58 30.30 30.92 32.48 33.66 34.19 32.55 34.07 35.49 31.82 32.21 33.26 32.88 32.56
42.69 42.48 42.53 42.48 42.56 42.29 42.19 42.21 42.43 42.75 42.82 42.97 42.92 42.13 36.36 32.71 28.23 30.60 41.52 40.13 36.02 32.89 23.38 24.64 21.70 20.69 31.33 27.50 25.36 25.67 23.95 24.05 26.07 19.87 23.58 22.94 20.60 18.76 25.10 26.84 28.48 30.45 31.21 32.37 32.22 33.12 34.12 30.98 30.31 30.43 32.55 31.24 29.60 30.48
42.46 42.41 42.39 42.36 42.25 42.08 42.21 42.47 42.92 42.90 42.35 41.69 38.03 30.91 23.17 29.97 39.55 38.88 31.76 27.12 26.20 26.67 26.91 23.05 26.82 22.44 27.32 23.07 19.61 20.19 25.72 25.60 21.34 23.54 26.64 21.60 22.33 28.41 29.62 31.35 31.78 34.09 33.01 31.66 29.33 28.25 29.07 30.18 30.31 28.58 28.81 30.31 30.67 30.39
42.83 42.67 42.72 42.72 42.63 42.48 42.48 42.47 42.16 41.42 40.26 35.30 29.44 26.48 32.38 39.86 32.02 25.72 18.09 20.64 20.57 22.86 25.32 27.00 27.01 22.68 29.25 21.03 20.34 24.47 23.69 25.58 20.66 19.30 22.45 22.97 20.78 24.29 32.16 32.30 32.46 31.75 32.01 31.56 31.38 31.18 31.08 30.30 29.42 29.43 30.84 31.11 29.97 29.22
43.14 43.00 42.84 42.49 42.14 42.18 42.32 42.54 41.67 35.68 33.69 35.19 34.16 35.26 33.68 29.39 22.71 19.26 18.56 23.79 24.08 24.90 27.25 26.99 28.11 25.68 25.72 29.26 21.62 23.72 23.05 20.09 18.68 26.44 25.19 16.52 28.25 33.00 32.71 32.13 33.23 33.75 33.51 33.07 33.35 32.61 32.81 32.38 31.95 31.44 30.59 30.18 29.72 30.01
42.65 42.66 42.34 42.02 41.94 41.83 42.00 42.43 42.46 42.10 39.99 35.15 30.35 26.29 24.01 20.14 11.64 15.86 11.29 21.64 18.87 24.44 26.46 24.39 22.06 26.41 26.01 25.48 25.41 23.52 21.07 17.25 25.72 17.31 19.72 21.51 29.94 31.86 32.57 33.05 33.65 35.69 35.58 34.21 34.74 35.10 34.90 34.41 33.58 32.43 30.53 30.61 29.98 28.56
42.09 41.99 41.81 41.45 41.68 41.68 41.67 41.66 42.24 39.22 33.07 25.23 20.78 11.71 15.88 9.46 18.99 20.84 24.67 23.20 25.92 25.19 26.32 24.74 24.18 24.33 25.63 24.50 24.88 21.65 24.11 24.16 13.84 14.99 20.74 24.40 30.78 34.01 33.50 34.17 34.13 33.23 31.64 31.77 31.61 31.75 30.90 30.97 30.24 30.25 26.80 25.45 22.43 25.19
42.28 42.11 41.68 41.14 41.45 41.05 41.10 41.38 41.37 36.15 29.17 24.50 22.16 11.39 16.67 25.32 28.54 28.62 25.64 28.07 28.93 30.83 28.86 26.61 25.54 24.94 22.32 20.09 23.79 23.51 19.24 15.86 20.90 19.01 22.71 29.44 32.20 33.80 34.00 33.59 31.27 29.12 27.78 28.44 28.99 28.86 27.93 26.50 26.38 25.40 25.36 26.44 26.69 21.82
41.23 39.92 39.30 41.53 40.84 40.64 40.67 39.62 37.90 35.45 30.14 26.39 25.50 21.72 26.55 25.59 20.63 18.48 20.52 22.36 29.29 29.50 28.74 25.82 22.92 20.20 22.29 24.38 22.68 17.39 21.24 17.96 21.71 24.35 27.58 29.40 31.14 30.74 29.96 29.83 29.98 29.23 28.70 27.22 27.09 27.21 26.98 23.05 21.96 26.49 25.83 25.35 20.25 24.38
39.78 36.26 41.74 41.55 41.36 41.28 41.24 38.35 33.83 29.26 25.80 26.46 19.87 22.89 21.92 21.07 19.36 21.24 21.76 25.50 30.85 27.99 19.82 23.51 20.85 21.61 23.33 20.39 21.35 20.70 15.56 18.13 20.99 24.28 24.87 27.46 27.16 27.23 27.57 28.28 29.39 28.44 26.25 25.32 26.22 26.10 25.80 27.00 26.29 26.83 25.69 27.21 27.68 28.86
37.06 38.16 41.66 40.97 39.47 39.09 36.50 35.40 33.39 28.21 25.45 24.61 20.39 20.89 21.72 21.24 19.85 20.91 22.65 26.98 27.98 27.57 27.32 24.49 26.12 23.50 15.69 20.40 18.51 26.46 28.26 27.43 28.20 27.33 27.26 28.26 28.82 27.82 27.87 26.33 27.41 26.30 25.04 25.64 26.15 26.01 25.31 24.66 24.92 23.92 24.53 25.45 25.78 24.53
37.68 36.97 40.64 40.23 37.76 34.62 32.19 31.57 30.85 25.21 24.86 25.07 25.15 25.71 25.59 24.82 26.10 27.21 26.73 28.16 30.12 30.61 28.64 24.59 24.15 20.99 21.75 22.67 21.65 26.32 23.86 22.06 22.22 23.47 24.05 27.83 28.30 28.00 27.78 27.83 26.66 26.38 26.01 25.83 25.13 24.07 23.86 24.38 23.86 24.19 25.46 25.08 23.28 23.10
37.83 38.30 38.70 39.22 37.94 31.98 30.03 28.96 32.38 26.58 24.30 25.43 27.31 26.40 26.76 26.07 27.19 24.79 26.22 28.36 28.69 29.45 26.29 23.95 23.61 23.42 23.51 24.49 25.00 26.06 25.77 23.76 22.90 19.78 19.82 23.37 24.54 26.93 25.51 25.17 25.33 25.16 25.24 25.97 25.37 24.02 23.31 22.34 24.43 23.76 22.25 21.75 21.26 19.75
36.32 35.97 36.80 35.07 32.00 32.08 28.71 27.65 26.78 26.44 26.54 25.39 27.32 26.88 25.98 27.54 25.35 24.92 25.01 28.59 24.65 29.24 25.86 25.78 23.19 25.29 25.63 23.81 24.51 23.11 23.69 23.71 22.20 23.24 21.48 18.22 20.89 21.99 22.06 22.59 23.53 24.10 22.22 20.56 19.94 20.04 20.29 20.21 21.03 21.37 16.78 9.25 14.19 15.57
35.44 38.84 31.30 33.48 29.12 29.30 26.36 27.84 26.44 27.14 25.77 25.96 25.66 26.21 24.10 19.52 20.56 23.91 27.80 25.44 25.68 25.54 24.87 23.48 25.70 24.83 27.40 26.14 24.83 25.65 25.46 25.85 24.72 22.79 20.53 21.22 19.68 20.41 19.29 19.51 20.08 16.78 17.46 16.03 18.10 16.48 17.52 19.47 18.13 17.80 14.26 9.60 12.04 14.21
36.45 34.55 30.90 30.14 23.40 19.78 20.12 28.72 25.23 26.21 23.10 24.60 26.53 25.37 23.91 23.62 25.86 28.94 22.72 24.47 23.21 22.95 21.50 21.22 23.34 26.12 25.17 25.56 26.78 26.87 26.46 24.97 23.50 22.62 23.57 21.75 21.04 20.32 18.82 17.71 17.49 12.64 11.76 14.23 17.21 16.20 14.73 13.39 15.56 10.67 11.96 9.55 8.43 4.54
35.62 29.17 22.92 23.58 24.30 13.91 25.10 19.95 26.34 25.71 25.02 24.61 24.21 20.61 22.95 21.90 26.20 23.78 21.77 21.99 22.43 23.46 23.83 24.53 23.19 22.99 23.39 25.79 23.65 23.43 24.85 24.62 22.74 21.86 21.55 20.16 17.72 16.89 17.23 16.81 17.04 16.80 17.23 17.03 15.54 11.05 9.85 3.96 4.71 8.63 4.99 0.55 2.09 1.68
18.45 16.41 18.34 11.41 21.55 17.04 14.82 16.87 18.34 23.36 14.61 19.51 19.42 15.85 19.00 25.37 17.92 18.33 18.71 17.81 20.00 17.36 19.50 23.61 23.79 23.85 21.27 21.09 23.60 23.38 23.53 22.18 19.02 17.86 18.56 18.41 16.27 14.65 14.83 15.82 16.06 15.65 16.67 12.34 10.97 7.42 5.45 3.74 2.15 3.39 4.90 2.87 5.27 6.09
14.50 13.76 17.95 16.35 13.09 17.48 19.76 12.20 12.67 13.82 18.10 15.35 17.92 22.91 23.02 17.54 12.74 13.00 20.29 19.01 16.87 19.03 14.38 17.60 19.45 20.86 20.64 22.07 21.44 19.11 17.91 20.12 19.53 16.31 16.76 17.59 15.97 10.99 6.94 9.48 10.20 12.67 14.89 9.32 5.19 5.48 7.20 5.80 4.23 4.72 5.20 7.16 7.47 8.11
12.85 11.97 25.94 27.20 25.96 25.43 17.71 20.40 25.08 19.52 13.11 11.40 16.27 14.59 13.80 8.70 8.34 16.28 19.14 21.58 22.01 21.16 24.24 24.05 23.01 20.90 20.37 19.64 19.49 18.78 18.36 18.05 16.64 16.12 17.97 18.08 17.04 15.06 9.28 5.47 4.92 9.48 14.36 12.09 6.10 2.00 4.16 7.17 8.60 9.17 9.31 9.62 9.91 10.78
20.68 23.77 15.90 20.11 20.58 24.83 14.76 13.43 14.08 13.48 16.95 22.76 21.02 12.29 10.57 11.91 13.92 17.58 20.46 22.26 23.49 24.14 23.10 22.60 22.52 21.51 19.74 17.92 15.50 12.07 9.85 9.39 10.51 11.80 13.20 13.18 11.68 5.93 4.54 3.26 4.27 12.96 6.24 1.55 -0.37 3.30 6.26 7.62 9.39 9.64 9.62 9.74 10.83 12.79
21.52 25.72 24.68 14.19 16.37 19.16 18.70 18.64 17.33 23.13 25.41 23.21 15.43 14.06 17.01 22.79 20.00 20.11 20.81 21.55 22.93 21.82 18.05 15.45 9.54 10.97 12.42 11.07 7.31 8.40 4.83 4.72 4.66 -0.17 -2.89 -6.70 -6.88 1.29 3.09 1.80 1.85 0.96 0.26 1.38 6.54 11.00 11.19 10.92 11.71 11.37 10.87 10.71 11.68 13.12
17.36 26.63 21.70 17.32 16.53 16.77 18.99 23.79 20.80 25.50 26.14 24.78 24.52 23.77 23.09 23.10 23.11 20.10 22.04 20.65 19.09 17.18 13.09 14.77 12.60 12.52 6.11 5.53 3.30 4.13 1.62 -1.32 1.69 1.09 -4.58 -7.60 -0.45 1.34 -4.70 -3.62 -3.80 -0.43 0.46 -1.26 2.36 2.99 5.07 4.76 6.80 3.39 5.08 6.61 9.03 9.72
26.49 22.55 20.08 21.64 19.51 17.90 19.07 20.68 20.30 19.80 17.25 17.92 14.70 17.62 17.48 16.75 17.18 15.23 18.00 22.22 22.30 20.32 19.37 15.02 5.81 2.63 6.33 -1.17 -1.90 -3.25 -0.35 0.00 -3.92 -1.02 -0.89 -1.16 -4.88 -5.97 -5.43 -4.88 -4.34 -5.79 -5.43 0.55 -1.26 -1.64 1.05 4.09 -0.72 0.99 1.45 2.69 5.37 6.60
22.17 23.26 21.89 19.85 21.68 25.27 24.92 18.50 17.74 17.34 14.45 15.59 14.93 10.95 12.99 12.88 11.24 12.13 16.64 23.55 19.88 15.94 9.06 11.91 10.50 6.49 1.41 -0.82 -2.05 -1.30 2.56 1.01 -1.80 -0.10 1.67 -3.07 -4.16 -4.88 -3.80 -2.36 -5.61 -5.97 1.43 -5.43 -6.34 -3.25 -1.80 -2.17 -6.34 -3.62 0.46 2.01 3.37 4.77
19.64 20.21 22.76 22.03 19.90 19.53 17.60 17.01 17.74 16.51 14.61 14.13 12.89 8.66 13.08 16.75 13.84 15.30 18.70 17.06 18.30 16.15 12.75 11.73 7.08 7.63 8.78 7.28 5.91 -0.12 -1.10 -0.72 0.74 7.24 5.45 4.72 1.08 -0.17 -5.61 -6.70 -4.34 -3.07 -7.24 -8.87 -6.88 -7.97 -3.62 -5.25 -9.05 -6.52 -3.98 -1.80 -0.08 0.77
MSLP
992.99 993.29 993.59 994.21 994.73 996.07 996.63 997.28 999.01 1000.42 1001.47 1002.10 1002.69 1003.17 1004.03 1004.68 1005.13 1005.44 1007.53 1007.74 1008.26 1010.77 1011.68 1011.36 1011.76 1012.19 1012.77 1013.24 1014.41 1015.08 1015.72 1016.48 1017.34 1018.30 1019.03 1019.06 1018.70 1017.82 1017.48 1016.89 1016.67 1016.91 1016.92 1016.99 1016.79 1016.11 1015.43 1014.61 1014.46 1014.87 1014.34 1013.96 1013.98 1014.23
992.04 992.55 993.29 994.15 994.70 995.69 996.61 998.65 999.94 1000.70 1001.76 1002.31 1003.13 1003.85 1004.48 1005.03 1005.36 1005.70 1007.70 1008.17 1008.17 1009.73 1011.95 1011.93 1012.09 1012.33 1012.37 1012.70 1013.57 1014.69 1015.29 1015.90 1016.88 1018.26 1019.04 1019.18 1018.87 1018.29 1017.86 1017.38 1016.64 1016.66 1016.72 1017.32 1017.31 1015.95 1014.49 1013.83 1013.80 1013.45 1013.48 1013.81 1013.88 1013.99
992.25 993.11 993.78 994.05 995.42 996.57 998.44 999.35 999.77 1000.68 1002.56 1003.23 1004.08 1004.14 1004.72 1005.11 1005.39 1005.62 1007.28 1008.53 1009.00 1011.18 1012.46 1012.40 1012.66 1012.69 1012.29 1012.60 1012.91 1014.29 1015.65 1015.44 1016.28 1016.65 1018.20 1018.71 1018.88 1018.51 1018.08 1017.26 1016.82 1016.57 1016.24 1016.43 1016.75 1015.14 1014.44 1013.70 1013.40 1013.24 1013.24 1013.30 1013.42 1013.26
993.19 993.12 994.48 995.65 997.09 998.39 998.75 998.71 1000.57 1001.56 1003.05 1004.07 1004.85 1005.10 1005.20 1005.19 1005.75 1006.22 1007.66 1008.89 1009.29 1011.06 1012.92 1013.51 1012.83 1012.94 1012.93 1012.82 1013.20 1013.74 1014.48 1015.17 1016.05 1016.62 1017.82 1018.34 1018.41 1017.81 1017.88 1017.30 1016.55 1015.79 1015.72 1015.91 1015.87 1014.91 1013.97 1013.26 1013.02 1012.84 1012.88 1013.03 1012.73 1012.63
993.95 994.65 995.98 997.48 998.38 999.21 999.63 1001.07 1001.91 1003.12 1004.06 1004.56 1005.35 1005.70 1005.82 1005.89 1006.38 1006.97 1008.01 1009.51 1009.60 1010.36 1012.81 1013.67 1013.42 1013.47 1013.18 1013.36 1013.98 1014.30 1014.81 1015.64 1016.69 1017.49 1017.95 1018.02 1017.65 1017.85 1017.43 1017.05 1015.56 1014.86 1014.45 1015.20 1014.95 1014.17 1013.84 1013.21 1012.88 1012.69 1012.52 1012.37 1012.39 1012.12
995.37 996.46 997.50 998.61 999.42 1000.27 1001.57 1002.39 1003.29 1004.35 1005.35 1006.01 1005.93 1006.46 1005.85 1006.11 1006.15 1007.31 1009.54 1009.92 1009.90 1010.11 1012.19 1013.51 1014.01 1013.92 1013.94 1014.15 1014.65 1015.04 1015.37 1015.84 1016.77 1017.33 1017.59 1017.34 1016.48 1016.93 1017.49 1016.65 1014.54 1013.76 1013.53 1013.53 1013.62 1013.16 1013.09 1012.93 1012.94 1012.67 1012.55 1012.23 1012.01 1011.97
997.40 998.76 999.47 1000.00 1000.95 1002.03 1002.95 1003.93 1004.12 1005.41 1006.71 1006.90 1006.40 1006.46 1006.52 1005.99 1007.23 1009.40 1010.31 1010.89 1010.58 1010.11 1011.18 1013.97 1015.60 1014.66 1014.43 1014.82 1015.45 1015.56 1015.60 1016.14 1016.81 1017.65 1017.52 1016.87 1016.46 1016.37 1016.55 1015.34 1013.19 1013.19 1012.88 1012.63 1012.69 1012.90 1012.92 1012.83 1012.81 1012.55 1012.39 1012.24 1012.07 1012.05
999.49 1000.29 1000.88 1001.64 1002.33 1003.13 1003.71 1004.56 1005.63 1006.17 1006.54 1006.12 1007.07 1006.70 1006.30 1007.67 1009.23 1010.68 1010.89 1010.58 1009.98 1010.05 1011.79 1014.87 1016.02 1015.41 1014.81 1015.46 1016.24 1016.55 1016.76 1016.91 1017.01 1017.23 1017.15 1016.88 1016.27 1016.01 1015.26 1012.71 1012.32 1012.12 1012.06 1012.04 1012.24 1012.26 1012.25 1012.42 1012.50 1012.48 1012.37 1012.31 1012.20 1012.22
1001.04 1001.52 1002.03 1002.80 1003.56 1004.34 1005.06 1005.59 1005.84 1006.89 1007.04 1006.87 1007.45 1007.10 1007.65 1009.38 1011.37 1011.84 1010.62 1010.26 1010.18 1011.66 1013.72 1014.97 1015.42 1015.79 1015.23 1016.01 1016.70 1017.10 1017.08 1017.30 1016.99 1016.94 1017.13 1016.86 1016.10 1015.17 1012.49 1012.07 1011.83 1011.71 1011.74 1011.84 1012.01 1012.11 1012.25 1012.45 1012.48 1012.44 1012.30 1012.31 1012.32 1012.34
1002.67 1003.39 1004.03 1004.54 1004.96 1005.72 1006.33 1006.87 1007.60 1007.75 1007.63 1007.46 1007.41 1008.24 1009.79 1011.82 1011.32 1010.38 1011.00 1011.51 1012.20 1013.52 1014.62 1015.27 1015.57 1015.90 1015.93 1016.71 1016.94 1017.21 1017.41 1017.37 1017.38 1016.24 1015.91 1016.11 1014.82 1012.78 1011.91 1011.40 1011.30 1011.49 1011.48 1011.80 1012.22 1012.45 1012.54 1012.62 1012.53 1012.50 1012.54 1012.49 1012.49 1012.69
1004.10 1004.63 1005.15 1005.72 1006.28 1006.81 1007.20 1007.49 1007.66 1007.43 1007.18 1007.81 1008.38 1010.43 1011.79 1011.08 1011.01 1012.06 1013.32 1014.05 1014.94 1015.37 1015.71 1015.63 1015.69 1015.63 1015.48 1015.99 1016.76 1016.99 1016.92 1016.70 1016.63 1015.85 1015.69 1015.11 1014.12 1012.61 1011.21 1011.02 1011.45 1011.65 1011.80 1012.01 1012.19 1012.33 1012.43 1012.48 1012.59 1012.68 1012.71 1012.78 1012.97 1013.10
1005.30 1005.84 1006.29 1006.64 1007.06 1007.40 1007.67 1007.90 1008.08 1008.20 1008.49 1008.18 1009.19 1010.38 1010.81 1011.29 1013.06 1014.65 1015.27 1015.33 1015.17 1015.12 1015.46 1015.32 1014.95 1014.98 1015.48 1015.65 1016.55 1016.69 1016.42 1016.23 1015.78 1015.15 1015.17 1014.30 1013.69 1013.05 1012.47 1012.18 1012.35 1012.49 1012.48 1012.34 1012.25 1012.40 1012.42 1012.43 1012.66 1012.85 1013.01 1013.10 1013.15 1013.18
1006.36 1006.86 1007.37 1007.83 1008.30 1008.59 1008.69 1008.46 1008.35 1008.03 1007.74 1008.17 1009.11 1011.22 1012.55 1014.53 1015.59 1015.10 1015.29 1015.39 1015.32 1014.87 1014.80 1014.92 1015.33 1015.36 1015.62 1015.80 1016.31 1016.32 1015.93 1015.44 1014.88 1015.08 1014.42 1014.04 1013.81 1013.49 1013.15 1013.08 1013.16 1013.08 1012.63 1012.46 1012.44 1012.39 1012.52 1012.58 1012.57 1012.72 1012.85 1012.90 1013.01 1013.08
1007.77 1008.15 1008.46 1008.59 1008.56 1008.64 1008.72 1008.66 1008.46 1008.52 1008.81 1010.31 1012.01 1014.17 1014.86 1015.38 1014.94 1014.89 1015.03 1014.82 1014.43 1014.49 1014.91 1015.16 1015.45 1015.55 1015.88 1016.18 1016.00 1015.98 1015.24 1014.83 1014.72 1014.40 1014.04 1013.83 1013.57 1013.34 1013.29 1013.11 1012.91 1012.97 1013.02 1013.07 1013.06 1013.00 1012.96 1012.96 1012.95 1012.86 1012.86 1012.96 1012.95 1013.06
1008.75 1008.99 1009.18 1009.41 1009.47 1009.34 1009.12 1008.96 1009.01 1009.30 1010.24 1011.90 1013.06 1014.53 1014.95 1014.65 1014.61 1014.38 1014.45 1015.02 1014.88 1014.83 1015.12 1015.47 1015.53 1015.63 1015.91 1015.87 1015.67 1015.46 1015.22 1014.66 1014.10 1014.09 1013.99 1013.78 1013.64 1013.34 1013.41 1013.41 1013.50 1013.58 1013.57 1013.43 1013.35 1013.32 1013.39 1013.36 1013.28 1013.28 1013.11 1012.94 1012.88 1012.77
1008.95 1008.93 1009.41 1009.46 1009.53 1009.50 1009.36 1009.38 1009.53 1010.37 1011.85 1012.46 1013.40 1014.11 1014.61 1014.75 1015.24 1015.32 1015.51 1015.56 1014.94 1014.97 1015.03 1015.12 1015.36 1015.62 1015.55 1015.38 1015.34 1014.92 1014.68 1014.13 1014.26 1013.97 1013.75 1013.86 1013.73 1013.54 1013.46 1013.54 1013.62 1013.74 1013.74 1013.66 1013.62 1013.58 1013.50 1013.46 1013.42 1013.25 1013.04 1012.90 1012.97 1012.71
1009.39 1010.02 1010.08 1010.07 1010.09 1010.10 1010.11 1010.35 1010.88 1011.59 1012.52 1013.11 1013.76 1013.80 1014.44 1015.27 1015.56 1015.64 1015.48 1015.16 1014.65 1014.90 1014.95 1014.96 1015.21 1014.99 1014.84 1014.79 1014.52 1013.99 1014.27 1014.33 1014.15 1014.01 1013.99 1013.79 1013.75 1013.55 1013.50 1013.49 1013.55 1013.80 1013.87 1013.86 1013.79 1013.65 1013.51 1013.35 1013.22 1013.11 1012.99 1012.82 1012.50 1012.54
1010.41 1010.53 1010.40 1010.47 1010.55 1010.68 1010.83 1011.11 1011.53 1012.21 1012.95 1013.45 1014.05 1014.43 1014.65 1014.98 1015.21 1015.29 1014.89 1014.66 1014.62 1014.59 1014.53 1014.55 1014.59 1014.72 1014.48 1014.06 1013.91 1014.12 1014.18 1014.15 1014.14 1014.14 1014.02 1013.90 1013.77 1013.65 1013.66 1013.85 1013.79 1013.88 1013.94 1013.87 1013.75 1013.59 1013.43 1013.26 1013.23 1013.27 1013.18 1013.07 1012.92 1012.87
1010.93 1011.04 1010.93 1010.94 1011.02 1011.30 1011.52 1011.77 1011.93 1012.48 1012.91 1013.21 1013.52 1013.64 1014.02 1014.23 1014.10 1014.07 1014.15 1014.15 1014.09 1014.04 1014.28 1014.52 1014.60 1014.41 1014.18 1013.87 1013.93 1014.05 1014.22 1014.39 1014.42 1014.36 1014.26 1014.13 1014.04 1014.14 1014.24 1014.29 1014.35 1014.29 1014.24 1014.15 1014.01 1013.97 1013.88 1013.57 1013.43 1013.35 1013.24 1013.25 1013.45 1013.48
1011.04 1011.10 1011.13 1011.13 1011.15 1011.50 1011.55 1011.75 1011.72 1012.29 1012.68 1012.76 1012.87 1013.19 1013.35 1013.45 1013.25 1013.43 1013.60 1013.79 1014.02 1014.22 1014.53 1014.45 1014.05 1013.58 1013.54 1013.56 1013.57 1013.90 1014.14 1014.34 1014.53 1014.64 1014.64 1014.54 1014.41 1014.42 1014.41 1014.46 1014.61 1014.64 1014.61 1014.43 1014.36 1014.22 1014.03 1013.82 1013.57 1013.65 1013.70 1013.78 1013.82 1013.84
1011.40 1011.41 1011.34 1011.38 1011.48 1011.63 1011.87 1011.99 1012.14 1012.23 1012.21 1012.38 1012.25 1012.47 1012.61 1012.67 1012.83 1013.03 1013.26 1013.27 1013.97 1013.84 1013.85 1013.40 1013.23 1013.23 1013.29 1013.42 1013.55 1013.84 1014.20 1014.30 1014.55 1014.68 1014.75 1014.81 1014.73 1014.72 1014.74 1014.76 1014.82 1014.79 1014.72 1014.58 1014.56 1014.38 1014.25 1014.10 1014.17 1014.26 1014.49 1014.72 1014.45 1014.29
1011.45 1011.35 1011.58 1011.57 1011.94 1012.03 1012.23 1012.05 1012.15 1011.95 1012.00 1012.00 1011.99 1011.93 1012.30 1012.43 1012.57 1012.53 1012.35 1013.10 1013.26 1012.92 1012.63 1012.79 1013.05 1013.25 1013.64 1013.77 1013.80 1013.82 1013.96 1014.14 1014.31 1014.48 1014.64 1014.75 1014.92 1015.04 1015.11 1015.03 1015.06 1015.20 1015.12 1015.16 1015.13 1015.13 1015.08 1015.05 1015.10 1015.01 1014.97 1014.82 1014.53 1014.20
1011.59 1011.64 1011.82 1012.04 1012.55 1012.83 1012.75 1012.11 1012.17 1012.02 1012.07 1011.97 1011.83 1012.00 1012.09 1012.06 1011.94 1011.83 1012.39 1012.53 1012.60 1012.51 1012.59 1012.89 1013.00 1013.13 1013.43 1013.49 1013.68 1013.82 1013.97 1014.15 1014.46 1014.64 1014.84 1014.98 1015.13 1015.29 1015.45 1015.51 1015.53 1015.57 1015.66 1015.60 1015.54 1015.57 1015.56 1015.44 1015.34 1015.21 1014.96 1014.70 1014.35 1014.09
1011.73 1012.14 1012.42 1012.67 1013.00 1013.52 1012.99 1012.92 1012.57 1012.50 1012.23 1012.19 1012.27 1012.30 1012.08 1012.03 1012.03 1012.30 1012.69 1012.54 1012.65 1012.79 1012.93 1013.21 1013.37 1013.63 1013.65 1013.61 1013.85 1014.15 1014.24 1014.40 1014.71 1015.02 1015.21 1015.45 1015.80 1015.91 1015.93 1015.98 1015.83 1015.82 1015.86 1016.03 1016.15 1016.23 1016.15 1015.94 1015.57 1015.33 1015.09 1015.01 1014.50 1013.82
1012.70 1012.99 1013.20 1013.53 1013.17 1013.58 1013.67 1013.36 1013.28 1012.97 1013.09 1012.74 1012.82 1012.71 1012.56 1012.46 1012.85 1013.01 1012.86 1012.75 1013.02 1013.36 1013.38 1013.50 1013.61 1013.81 1013.99 1014.08 1014.48 1014.71 1014.74 1014.90 1015.26 1015.64 1015.93 1016.06 1016.21 1016.21 1016.17 1016.19 1016.28 1016.59 1016.58 1016.66 1016.61 1016.70 1016.44 1016.01 1015.70 1015.42 1014.98 1014.61 1014.01 1013.26
1012.95 1013.12 1013.15 1013.14 1013.41 1013.44 1013.47 1013.73 1013.46 1013.37 1013.20 1013.26 1013.14 1012.86 1012.94 1013.36 1013.79 1013.44 1012.79 1012.52 1012.96 1013.19 1013.44 1013.60 1013.70 1014.02 1014.39 1014.43 1014.96 1015.36 1015.60 1015.58 1015.72 1016.07 1016.38 1016.38 1016.50 1016.67 1017.08 1017.08 1017.11 1016.97 1016.82 1016.91 1016.74 1016.81 1016.47 1015.93 1015.61 1015.09 1014.50 1013.85 1013.19 1012.53
1012.90 1012.84 1012.46 1012.26 1012.40 1012.58 1013.04 1012.91 1012.90 1013.14 1013.33 1013.45 1013.35 1013.47 1013.82 1014.25 1013.96 1013.20 1012.57 1012.38 1012.72 1012.80 1012.91 1013.25 1013.63 1014.13 1014.73 1015.30 1015.66 1015.90 1016.09 1016.24 1016.46 1016.52 1016.56 1016.82 1017.16 1017.45 1017.67 1017.68 1017.52 1017.43 1017.08 1016.90 1017.02 1016.70 1016.39 1015.74 1015.11 1014.51 1013.88 1013.12 1012.50 1011.76
1012.36 1012.14 1012.08 1012.07 1012.20 1012.26 1012.83 1012.94 1012.96 1012.85 1012.66 1012.52 1012.86 1013.46 1013.66 1013.25 1012.92 1012.58 1012.39 1012.39 1012.59 1012.96 1013.44 1013.81 1014.11 1014.57 1015.19 1015.76 1016.10 1016.46 1016.78 1017.01 1016.89 1016.96 1017.20 1017.69 1017.81 1017.89 1017.85 1017.85 1017.70 1017.44 1017.14 1016.84 1016.60 1016.31 1015.96 1015.36 1014.70 1014.06 1013.46 1012.75 1011.93 1011.17
1011.83 1011.54 1011.68 1012.35 1012.24 1012.36 1012.39 1012.50 1012.43 1011.93 1011.63 1011.90 1012.48 1012.52 1012.50 1011.96 1011.87 1012.17 1012.28 1012.46 1012.71 1013.24 1014.08 1014.66 1015.21 1015.34 1015.85 1016.27 1016.65 1016.98 1017.27 1017.51 1018.13 1018.37 1018.46 1018.85 1019.42 1018.81 1018.22 1018.03 1017.80 1017.52 1017.19 1016.95 1016.44 1015.99 1015.45 1014.91 1014.37 1013.81 1013.32 1012.68 1011.88 1011.15
1011.44 1010.96 1011.42 1011.73 1012.08 1012.00 1011.69 1011.40 1011.54 1011.75 1011.63 1011.71 1011.85 1011.92 1012.00 1012.11 1011.81 1011.76 1012.05 1012.54 1013.02 1013.54 1014.15 1014.58 1015.23 1015.95 1016.61 1017.24 1017.60 1018.07 1018.15 1018.17 1018.18 1018.67 1018.86 1019.17 1019.44 1019.06 1018.63 1018.40 1018.10 1017.60 1017.23 1016.92 1016.70 1016.16 1015.37 1014.92 1014.41 1013.97 1013.47 1012.90 1012.18 1011.56
1010.51 1010.74 1011.09 1011.23 1011.44 1011.40 1011.26 1011.41 1011.45 1011.65 1011.80 1011.90 1012.04 1012.59 1012.77 1012.47 1012.18 1011.98 1012.15 1012.34 1012.82 1013.45 1014.13 1015.08 1015.90 1016.27 1016.81 1017.35 1017.68 1018.19 1018.60 1018.43 1018.16 1018.11 1018.23 1018.44 1018.52 1018.57 1018.38 1018.13 1017.87 1017.56 1017.26 1017.06 1016.93 1016.58 1016.07 1015.60 1015.14 1014.78 1014.26 1013.71 1013.03 1012.47
1010.39 1010.60 1010.84 1011.11 1011.20 1011.23 1011.44 1011.85 1011.94 1012.03 1012.11 1012.48 1012.68 1012.83 1013.20 1013.16 1013.10 1012.58 1012.30 1012.36 1012.82 1013.54 1014.21 1014.95 1015.66 1016.27 1016.23 1016.72 1017.14 1017.18 1017.09 1017.65 1017.85 1017.78 1017.91 1018.11 1018.18 1018.12 1018.08 1017.95 1017.74 1017.54 1017.35 1017.32 1017.29 1017.01 1016.57 1016.21 1015.91 1015.57 1015.07 1014.47 1013.89 1013.37
1010.54 1010.52 1010.64 1010.90 1011.21 1011.52 1011.84 1012.17 1012.34 1012.37 1012.50 1012.75 1013.04 1013.19 1013.35 1013.61 1013.29 1012.57 1012.12 1012.02 1012.57 1013.13 1013.89 1014.49 1015.03 1015.41 1015.78 1016.15 1016.61 1016.89 1017.07 1017.27 1017.45 1017.60 1017.79 1017.93 1018.00 1018.00 1017.89 1017.76 1017.69 1017.61 1017.57 1017.81 1017.83 1017.43 1017.14 1016.90 1016.67 1016.33 1015.85 1015.31 1014.83 1014.37
Wind_Speed
13 15 24 31 34 33 32 33 29 26 24 23 23 24 22 21 12 5 3 2 5 4 2 4 3 5 3 4 5 5 4 3 3 4 3 4 3 1 2 1 3 2 2 2 2 3 6 9 1 5 7 3 3 3
17 30 35 36 36 35 34 33 30 29 25 24 23 21 18 16 14 6 5 2 3 7 5 3 5 3 3 3 7 2 5 5 5 4 0 2 1 1 2 3 3 3 3 3 5 6 5 5 7 7 4 4 4 5
33 34 34 36 36 36 34 32 31 29 23 21 19 19 17 14 11 9 5 3 5 5 4 5 5 5 7 6 1 6 2 4 2 4 4 3 2 3 2 4 2 3 2 3 4 7 7 8 5 5 6 5 5 7
34 37 36 35 34 32 33 33 29 27 24 22 19 20 21 23 21 13 7 2 5 5 6 1 1 4 3 7 7 5 6 5 5 4 3 3 3 3 3 5 5 6 1 3 6 9 7 6 4 3 7 6 8 10
37 38 37 34 33 32 32 30 28 25 24 24 23 23 24 24 23 14 7 4 2 6 5 3 1 3 5 6 7 6 6 4 3 2 3 2 1 1 3 2 6 5 7 5 7 7 6 6 4 6 7 1 2 4
37 36 35 34 34 33 31 29 28 25 23 21 21 18 16 14 11 6 7 5 6 3 6 4 3 2 2 3 4 4 3 3 3 4 3 3 4 5 1 4 6 5 4 7 6 7 4 3 3 2 2 1 2 3
36 34 33 33 32 31 29 26 27 24 21 19 20 20 21 23 9 5 5 3 4 1 6 5 2 3 4 2 3 3 4 2 3 2 2 3 2 5 3 11 11 8 9 9 5 4 3 2 2 3 3 3 3 3
32 31 31 30 29 28 26 25 23 23 22 23 22 23 23 20 11 6 4 7 3 6 6 5 2 2 1 1 2 2 2 3 2 2 3 2 2 2 5 9 8 9 8 5 7 6 4 3 1 2 1 1 2 3
30 29 29 28 26 25 23 21 21 18 17 17 13 12 7 7 5 3 8 8 4 6 4 2 4 3 2 1 1 2 2 1 1 2 3 3 2 6 10 8 9 6 6 6 5 5 5 4 5 2 1 3 3 3
28 27 26 24 23 21 19 17 15 13 11 7 4 5 6 2 2 6 8 6 7 5 4 2 1 2 4 1 2 3 1 2 3 5 3 2 5 13 11 10 5 5 6 6 5 3 2 3 2 3 5 6 3 4
26 25 24 23 21 19 16 13 10 8 10 4 5 5 3 3 4 5 5 5 2 3 1 3 3 3 2 4 3 2 3 2 2 5 4 3 4 6 10 6 6 6 6 5 4 3 4 3 3 4 4 4 3 3
25 24 23 22 20 17 15 13 7 4 1 4 7 5 2 5 7 7 0 1 1 3 2 4 2 4 1 3 4 3 2 2 5 3 3 3 3 7 9 10 9 6 2 2 4 4 4 2 3 3 3 1 2 3
23 22 20 18 16 14 13 13 11 9 6 4 7 6 6 4 6 5 2 1 0 2 1 2 2 3 4 3 1 1 2 5 2 0 3 2 1 3 6 6 7 2 5 3 1 0 2 2 2 1 3 3 4 5
20 18 17 16 14 13 13 13 12 6 5 6 6 5 4 2 0 3 4 4 3 3 2 2 0 3 2 2 2 3 5 1 3 3 3 2 2 2 4 3 4 2 4 4 4 5 5 4 5 3 2 4 3 6
16 15 13 11 11 11 11 11 9 4 4 5 5 3 1 2 2 2 2 3 3 1 2 2 2 3 1 1 3 1 3 4 3 2 2 1 1 3 3 3 2 3 3 4 4 5 5 5 3 4 6 6 5 5
8 6 5 7 8 9 10 8 5 3 3 3 2 4 1 4 3 4 1 1 1 1 1 2 2 2 4 3 3 6 3 4 2 3 2 2 3 4 3 1 0 2 4 4 4 3 4 4 4 5 5 2 3 1
7 4 3 5 5 7 7 3 3 4 3 2 2 2 4 3 4 2 3 3 2 2 2 2 3 7 1 2 4 2 3 4 3 2 2 2 4 5 5 4 3 1 4 5 4 5 5 5 5 5 5 5 3 2
4 3 2 4 4 2 2 3 2 3 2 1 3 3 2 3 3 2 3 2 3 2 1 3 2 2 4 3 2 2 2 3 3 3 2 4 5 4 1 2 3 4 5 5 5 6 6 5 3 4 6 6 4 4
3 2 5 5 2 2 2 1 3 2 3 3 2 2 3 3 3 2 3 3 3 2 2 2 2 3 4 1 3 3 2 2 2 2 2 3 3 2 2 4 5 6 5 5 5 4 4 5 1 1 2 3 3 4
3 3 2 2 2 2 0 1 3 2 1 3 1 2 3 4 3 3 3 3 4 2 2 3 4 4 4 4 3 3 3 3 1 1 2 2 1 1 3 2 1 4 4 4 3 3 3 4 1 2 1 1 2 3
0 1 2 2 2 1 1 0 1 3 2 2 2 3 3 1 2 3 3 4 2 3 3 4 3 3 1 1 2 2 1 2 2 2 3 2 2 1 1 1 1 1 2 2 2 3 3 2 2 4 4 3 3 4
1 0 1 1 2 2 2 1 2 3 1 2 2 2 1 1 2 3 3 2 3 5 4 4 3 3 3 2 3 4 4 3 2 1 2 2 2 2 2 2 2 2 3 3 3 4 4 4 5 4 2 4 5 5
2 1 1 1 3 4 5 2 2 2 1 2 1 1 2 1 2 1 0 3 3 2 2 2 2 3 3 3 2 1 3 4 2 1 2 1 1 2 3 2 2 2 2 2 0 0 1 3 3 3 4 4 4 4
1 2 2 2 3 3 1 2 1 2 3 1 0 2 2 2 1 1 3 3 3 0 2 2 2 1 2 1 0 2 1 2 2 3 4 3 2 2 3 1 2 2 1 2 3 3 3 3 5 5 5 5 6 6
6 6 5 3 2 4 2 1 2 0 2 2 2 4 3 1 1 2 3 4 1 1 2 2 2 1 2 1 4 3 4 3 3 4 3 3 0 2 3 3 3 5 4 4 5 4 5 4 4 5 6 6 9 11
2 5 6 6 3 4 5 3 3 5 2 1 3 2 2 3 1 5 4 3 3 4 4 4 3 2 2 2 4 3 0 2 3 3 0 2 1 1 1 3 4 3 4 2 2 4 6 5 6 8 8 10 11 12
3 4 3 4 3 2 2 1 2 3 3 4 3 1 3 1 6 5 2 1 2 2 2 3 4 4 5 4 3 2 2 3 3 2 0 4 5 4 3 1 3 4 5 4 4 3 6 8 9 9 10 10 11 11
5 2 5 3 2 2 4 1 4 5 4 4 3 3 6 8 6 4 3 2 5 5 5 4 4 5 5 3 3 3 2 2 3 3 4 3 2 2 2 2 2 6 4 3 3 5 5 6 8 10 11 11 12 12
3 2 3 2 1 2 5 7 5 4 2 4 5 4 5 3 3 3 1 3 4 6 5 4 2 3 4 3 2 2 3 4 4 4 2 4 4 5 3 2 3 3 3 4 8 8 10 8 10 9 11 10 10 10
4 3 3 3 6 6 5 4 2 2 0 2 2 2 2 2 2 1 4 4 4 4 5 5 5 5 4 4 2 3 3 2 4 5 4 3 4 4 3 3 4 4 4 3 5 6 8 5 6 5 6 7 7 8
2 3 2 3 3 3 3 2 1 1 1 1 1 3 4 3 3 2 3 3 4 5 6 5 2 2 6 4 4 4 1 3 2 4 4 3 2 3 3 4 3 3 3 4 4 4 5 5 4 6 7 8 10 9
2 5 3 3 2 1 1 1 1 1 2 1 2 1 3 4 2 3 2 3 4 4 4 6 5 4 4 3 3 3 5 4 4 4 4 2 2 3 3 3 3 3 3 4 4 4 4 5 4 6 7 8 9 9
1 1 2 1 2 1 2 3 1 3 2 0 2 2 2 3 5 4 2 2 5 5 6 5 4 5 7 7 6 4 4 4 4 3 4 3 3 2 2 2 2 3 4 3 4 4 5 6 5 6 7 8 8 8
Wind_Direction
217 220 149 137 130 126 122 116 112 114 115 114 116 118 116 121 123 94 121 314 121 97 18 73 70 152 164 157 145 176 80 342 43 71 127 226 176 262 288 261 274 317 296 307 294 293 279 215 187 166 226 268 214 247
180 142 134 130 124 118 115 115 119 115 114 112 114 114 115 116 122 105 91 338 76 88 139 120 97 56 60 196 134 76 170 154 171 98 56 120 40 332 227 270 318 251 160 200 208 236 245 240 209 244 193 192 248 239
133 133 127 119 119 115 119 116 111 107 109 111 123 129 131 128 105 95 107 119 66 91 51 52 61 15 34 46 144 115 307 161 132 159 159 169 177 130 224 245 243 260 243 221 7 269 262 261 254 214 205 213 274 279
125 114 112 110 113 116 116 109 111 110 108 105 101 100 96 91 85 85 79 321 80 117 106 307 1 42 58 56 60 88 121 55 104 84 112 140 154 157 236 229 229 220 180 252 259 275 290 262 219 232 209 208 351 301
111 109 110 111 111 109 106 108 107 102 105 103 103 102 103 97 97 88 82 47 57 116 141 142 76 28 66 67 77 74 86 94 82 59 80 204 186 97 261 275 261 187 195 161 227 245 217 257 321 311 244 280 336 299
104 105 107 109 106 104 105 103 104 102 96 99 98 101 90 86 78 65 47 350 7 67 103 86 305 75 58 103 103 117 125 101 104 134 205 232 228 123 200 254 249 224 193 197 242 211 222 268 336 348 19 43 7 34
102 107 108 106 106 108 107 106 99 99 102 100 96 94 90 78 66 69 146 208 319 153 83 67 4 282 174 104 10 35 27 109 121 211 228 196 229 117 189 251 249 238 261 263 203 138 209 140 250 285 65 3 32 65
107 108 106 106 105 104 101 99 101 102 106 102 101 93 90 93 74 32 337 0 35 80 69 102 246 29 82 50 5 2 44 25 336 218 345 215 354 142 253 246 251 250 238 159 179 198 177 192 170 83 119 337 11 332
104 101 99 99 99 100 101 101 100 101 101 103 109 105 69 49 54 239 333 26 49 94 107 97 127 224 46 72 142 360 126 284 301 172 244 95 248 228 234 230 241 248 191 178 135 126 153 148 155 195 316 289 280 304
103 103 102 101 98 98 98 99 102 103 106 126 68 60 49 348 238 23 9 33 22 359 37 89 98 193 123 148 292 80 35 224 243 234 112 188 253 255 257 238 239 178 137 133 125 125 157 223 241 312 291 296 301 94
100 97 94 93 91 86 81 78 80 59 28 34 50 64 206 99 57 38 43 69 351 33 264 226 180 162 283 102 208 200 203 203 245 260 161 231 257 297 306 140 114 114 108 101 120 161 185 221 266 290 320 96 82 96
97 94 90 85 77 70 64 57 89 52 115 126 128 133 85 45 38 71 355 330 139 177 211 161 199 149 290 100 90 287 219 59 247 142 228 268 343 10 27 60 61 41 44 166 196 216 247 298 55 52 53 299 255 243
92 91 89 85 83 83 71 59 57 72 71 34 46 53 55 339 48 116 143 336 58 204 216 59 339 126 12 46 231 112 259 233 78 31 234 203 180 62 66 73 64 56 246 242 31 328 292 251 208 227 274 278 293 297
97 97 96 90 78 66 58 51 45 44 65 61 76 49 128 321 314 171 162 175 241 94 110 120 97 152 184 133 206 233 246 11 314 239 230 218 226 228 221 238 235 176 40 11 4 342 326 317 298 290 326 294 288 285
101 99 89 76 71 58 48 42 41 48 81 68 78 123 164 188 145 97 41 57 360 3 71 51 3 115 276 89 212 267 315 253 230 252 190 315 316 306 299 311 359 1 352 355 341 340 336 334 336 307 299 289 283 274
85 63 65 82 56 42 35 29 36 60 56 72 83 76 316 71 1 21 54 253 275 285 68 77 140 82 235 206 191 219 236 232 219 216 193 177 191 234 233 205 266 320 324 350 1 346 335 321 293 295 307 342 316 331
38 50 90 81 63 48 33 51 57 60 95 62 317 37 105 112 178 205 165 212 192 103 186 139 162 217 176 227 230 202 191 221 238 266 233 234 268 278 246 205 136 276 299 293 289 290 283 286 296 292 301 296 301 318
62 360 99 77 59 10 35 43 57 97 121 219 109 241 173 160 165 251 221 209 127 196 104 209 169 239 217 224 247 203 220 215 219 215 251 276 279 297 331 329 327 285 289 285 273 276 287 297 333 358 354 346 357 52
110 111 87 68 81 104 136 324 105 133 206 195 205 161 156 198 218 187 182 198 184 194 114 27 240 218 233 208 182 227 257 233 241 263 283 360 54 61 3 5 340 324 333 347 360 4 346 345 350 19 7 15 12 12
98 59 31 23 30 60 23 28 99 125 178 226 158 193 184 194 190 177 194 183 147 132 181 220 222 221 192 210 182 200 232 205 178 324 306 333 297 193 310 330 5 338 336 344 346 344 341 324 21 32 44 1 330 325
195 309 24 51 11 94 146 88 183 192 211 182 226 164 226 115 169 167 205 158 114 208 225 220 212 225 218 134 140 137 198 148 166 180 224 265 289 134 308 312 6 295 248 266 281 294 309 316 17 14 21 346 321 302
339 216 36 341 63 349 57 291 171 253 110 239 333 156 226 337 254 225 164 123 218 222 191 178 190 152 151 182 227 204 205 180 213 341 58 94 43 9 325 276 331 325 338 342 359 15 22 31 21 3 340 288 291 289
323 32 17 69 63 42 253 14 46 314 112 264 360 202 273 249 232 96 279 209 240 241 178 122 132 131 167 214 204 218 211 199 139 88 12 26 345 10 37 25 25 38 8 322 355 112 257 310 322 302 304 298 297 291
358 69 100 159 115 233 354 1 331 310 343 333 299 297 272 239 353 60 240 247 252 245 67 127 123 76 359 282 107 109 108 133 128 65 34 49 48 3 12 332 319 342 353 354 360 352 335 301 303 308 303 299 292 285
73 291 101 283 300 71 43 352 306 299 238 218 36 310 281 46 65 261 235 264 195 201 177 157 145 159 180 123 103 88 51 78 94 97 45 50 293 332 349 358 31 73 24 3 338 317 312 309 302 298 299 291 295 300
184 257 147 194 259 140 194 162 208 211 183 251 241 265 51 71 30 250 246 201 200 171 188 181 179 113 49 90 135 118 117 65 78 91 360 3 345 114 15 29 4 329 352 325 298 309 313 296 295 295 298 300 297 297
238 264 203 208 188 164 11 301 168 121 183 203 236 137 91 183 242 250 278 257 139 217 141 127 117 117 133 120 102 104 98 96 131 161 224 69 78 81 111 124 292 277 325 327 315 284 299 310 311 310 308 307 303 302
220 241 184 216 183 165 164 153 169 208 222 214 107 173 187 201 235 229 198 239 122 108 97 88 98 113 116 124 136 115 55 63 64 47 61 58 59 51 21 345 331 331 324 309 292 301 298 295 307 310 311 310 312 312
234 251 119 181 143 173 199 188 214 221 204 143 160 214 237 226 192 152 183 152 132 123 121 116 10 84 77 58 62 75 111 105 87 53 23 289 331 309 313 311 310 321 312 321 316 319 321 321 325 321 319 315 314 318
251 178 167 176 166 212 234 183 208 222 333 179 185 350 3 350 276 189 122 136 144 169 169 163 153 135 160 145 154 30 359 94 122 138 172 226 236 258 296 301 312 307 310 315 315 315 323 330 317 327 336 336 342 348
214 121 162 171 217 239 225 207 126 113 86 210 303 159 219 240 310 311 150 152 135 123 122 122 105 149 134 145 143 134 264 280 187 173 169 195 228 265 275 286 285 300 326 324 327 324 328 335 331 339 339 347 352 359
181 187 169 204 222 165 68 120 220 208 275 115 279 53 14 40 285 281 266 115 122 142 171 150 150 209 209 168 149 153 145 151 172 179 173 188 248 253 268 292 311 339 338 351 339 339 331 346 339 348 350 353 357 3
87 90 123 145 135 197 281 83 324 288 341 258 284 183 213 186 236 242 287 132 158 163 166 183 184 147 154 148 153 163 162 169 165 159 160 175 196 279 290 309 354 33 32 15 8 358 4 9 359 0 4 5 6 7